Presure
172 168 175 184 183 176 184 173 182 195 208 205 212 210 212 221 224 227 205 204 224 235 215 223 188 208 228 231 251 211 221 226 228 233 252 203 196 196 190 212 197 183 179 151 147
176 169 179 180 181 169 189 176 190 205 209 184 211 220 217 224 210 204 208 216 231 227 226 214 229 216 210 220 245 284 264 238 228 233 233 260 217 205 197 193 206 212 186 183 179
166 170 182 172 168 180 181 178 179 205 209 189 203 184 213 206 214 223 205 215 222 205 222 214 221 245 247 243 263 261 284 254 238 242 240 214 262 264 210 193 195 202 208 192 193
160 187 178 169 171 176 163 180 180 200 208 209 195 183 208 210 222 214 201 217 218 204 219 206 188 255 241 239 236 272 277 281 264 245 247 248 241 255 273 204 200 194 201 202 189
172 187 177 167 162 172 177 180 180 202 208 195 198 203 198 211 216 216 217 213 229 194 196 215 243 260 254 248 259 273 278 255 320 261 238 249 228 232 263 288 217 191 196 197 195
168 173 174 152 185 176 177 175 185 206 189 188 193 196 187 215 207 217 220 213 217 194 224 202 268 263 233 264 230 288 322 515 586 345 335 292 293 266 199 241 296 223 204 203 199
163 179 174 161 166 174 172 180 203 187 190 193 187 191 197 186 214 204 221 224 208 217 230 241 249 246 287 296 288 266 427 425 433 467 537 369 182 191 291 250 248 301 215 206 207
168 172 166 178 170 173 177 181 199 183 200 163 193 191 195 189 214 212 227 223 210 230 216 258 242 271 228 354 420 408 409 415 394 451 524 494 315 270 212 280 273 302 275 211 202
163 164 161 166 160 175 182 196 184 191 195 203 206 201 201 199 205 215 224 222 221 224 218 265 253 284 298 416 393 388 394 404 387 429 439 468 506 200 274 248 275 272 303 247 209
167 165 170 149 179 177 181 174 195 198 198 198 189 181 200 203 203 213 216 214 228 191 265 276 258 288 326 390 380 388 421 389 380 395 438 461 493 501 373 285 238 286 305 285 222
140 171 154 166 137 172 173 203 194 183 185 185 191 193 207 201 212 209 222 230 212 229 269 263 273 287 394 393 360 365 403 372 376 409 432 447 487 464 427 323 291 289 301 293 257
172 163 162 166 182 168 186 180 178 195 186 170 201 215 211 200 218 219 227 231 223 255 266 275 256 295 397 351 340 355 372 360 394 416 426 441 468 432 425 364 312 283 248 292 276
161 172 174 175 178 168 197 193 181 201 163 193 202 216 208 200 204 221 222 235 218 253 268 273 274 354 385 353 357 366 350 343 363 386 390 407 422 418 401 377 319 296 279 274 291
179 173 172 181 193 196 194 184 199 202 198 191 213 205 218 224 222 224 216 239 222 254 265 275 275 392 376 348 353 365 341 339 332 352 341 347 374 382 418 372 325 305 280 277 286
172 165 177 177 177 182 182 186 185 179 198 221 211 220 199 216 227 220 226 218 229 258 210 275 282 386 353 339 376 356 331 320 327 330 337 330 334 395 374 364 341 301 289 284 283
179 183 190 178 202 201 195 193 208 199 219 213 219 214 218 227 226 197 220 212 253 251 280 277 282 376 352 338 362 348 322 319 324 319 322 350 333 379 344 373 353 305 294 281 281
176 192 185 182 191 195 201 204 202 215 216 222 213 140 227 213 219 207 211 239 242 223 259 269 334 371 338 333 359 343 326 312 310 315 342 331 345 348 332 340 364 311 292 284 282
178 200 179 211 201 189 190 205 208 197 221 217 215 218 226 212 181 239 214 252 265 283 282 266 380 358 332 332 338 337 319 311 315 314 324 332 323 320 343 361 347 325 285 283 292
197 185 184 182 192 205 203 207 217 222 212 232 226 232 225 208 182 256 244 253 284 289 276 267 387 351 331 327 314 327 317 311 299 303 307 308 322 328 315 348 367 355 293 286 282
194 189 200 207 202 202 213 221 225 215 217 209 143 210 227 188 236 276 258 267 226 284 276 281 372 346 334 318 306 320 333 314 334 290 293 306 322 312 335 354 347 313 337 297 278
201 215 202 189 211 200 221 225 215 219 219 215 229 213 193 235 246 265 275 291 250 205 262 283 371 354 333 314 315 306 314 308 312 308 299 295 297 320 317 325 331 332 329 308 296
197 198 207 210 217 214 224 210 215 229 227 230 231 221 231 273 263 286 293 298 281 273 259 314 376 363 339 313 329 305 321 300 291 296 296 298 299 304 308 317 313 323 317 343 315
207 224 210 227 213 212 216 231 230 132 216 218 220 222 229 266 252 281 295 281 272 266 267 334 378 360 336 332 333 306 317 297 297 291 288 291 300 300 297 308 305 322 322 315 330
196 219 214 191 218 218 229 221 219 212 222 152 211 231 246 265 274 246 286 274 252 258 270 407 383 358 338 331 342 310 307 300 292 293 292 286 283 296 297 299 281 298 316 319 302
240 200 197 206 239 215 205 219 222 209 217 209 228 193 265 280 184 280 282 270 265 248 273 406 378 359 337 326 356 363 307 303 295 291 287 286 288 279 278 278 288 283 294 307 315
200 209 231 197 235 211 215 217 199 223 225 215 238 267 172 271 158 277 276 276 254 237 273 401 372 362 333 321 336 345 309 303 314 283 297 300 287 288 295 278 309 290 304 315 324
196 209 206 209 215 207 175 159 217 221 214 230 264 269 151 168 197 272 276 295 246 251 277 382 383 359 336 312 315 321 319 313 311 317 327 326 301 306 295 293 314 336 346 330 370
Wind_Speed
48 50 49 48 47 45 54 47 55 62 60 49 53 53 51 44 41 42 45 47 47 50 52 55 70 68 63 70 68 84 82 81 83 86 85 104 104 100 94 97 90 85 84 72 66
51 52 52 51 51 49 64 54 69 68 63 57 56 53 53 50 51 50 50 53 56 55 57 60 64 70 76 76 78 75 78 90 87 89 92 89 106 109 100 95 98 96 88 86 81
56 55 53 52 50 59 61 59 62 69 62 63 61 56 59 58 58 60 56 59 64 58 67 65 71 82 80 80 80 80 79 88 90 91 93 95 94 99 109 97 97 97 96 92 91
60 55 54 53 53 60 54 65 66 74 66 62 66 61 65 65 64 64 61 67 68 65 72 72 72 83 84 79 88 88 89 88 89 92 92 96 100 102 98 107 102 98 99 98 93
59 56 56 55 53 61 64 67 70 73 66 68 69 67 69 66 67 68 71 71 75 67 72 82 90 85 82 89 93 95 94 83 95 95 88 91 99 99 93 92 110 100 101 102 98
60 59 58 57 64 66 67 66 75 71 72 72 72 72 70 72 72 72 75 75 75 73 87 80 85 81 96 83 70 93 93 54 39 102 105 98 99 101 92 92 93 111 109 108 103
65 62 63 65 66 68 70 75 77 73 75 74 75 77 78 72 77 75 78 80 79 85 89 83 82 92 86 87 94 85 54 53 48 51 49 105 84 83 97 110 106 94 113 112 109
63 65 65 71 69 71 76 79 79 78 78 66 81 80 82 80 82 83 82 82 82 86 88 85 91 84 68 85 50 51 48 44 46 42 33 52 89 86 102 108 106 85 115 116 112
66 67 69 71 70 78 80 85 83 83 82 78 80 81 82 86 86 85 84 85 91 88 92 85 86 87 87 49 51 50 46 40 36 38 39 40 52 106 108 112 109 107 95 116 116
67 69 73 68 81 81 84 78 84 81 82 80 83 81 86 86 88 84 89 87 91 82 91 86 87 86 87 56 47 48 38 33 34 35 35 32 43 52 94 112 112 97 94 112 119
61 71 71 75 62 82 82 85 84 82 86 85 88 89 87 88 91 85 91 92 86 89 90 84 86 86 59 49 38 41 30 29 32 27 27 28 31 45 74 109 110 101 97 105 121
72 71 74 78 85 78 91 87 86 87 86 78 89 87 86 87 91 92 90 88 89 91 90 88 83 84 47 38 38 40 27 25 12 9 8 15 21 44 68 100 105 103 106 104 118
74 77 80 83 85 82 90 90 86 88 72 89 91 88 88 86 85 87 90 87 85 93 91 85 83 66 45 34 37 32 18 20 14 18 11 6 22 31 61 81 103 102 101 110 106
81 81 83 90 93 93 91 89 91 91 91 90 88 88 89 90 84 86 87 87 85 90 90 83 81 42 39 28 30 16 10 14 14 17 13 10 3 35 41 71 97 98 103 107 106
82 80 89 88 89 90 88 91 91 84 92 87 88 90 86 80 84 86 86 83 85 88 81 82 80 39 35 31 22 7 7 9 9 6 10 23 25 23 39 59 84 99 102 104 109
88 91 91 89 91 91 92 95 93 95 88 89 89 90 84 86 88 72 86 83 91 85 85 78 76 36 28 24 15 5 4 3 5 6 6 7 18 31 39 46 70 94 98 103 105
88 92 91 90 89 92 92 91 94 93 91 88 91 58 84 91 89 80 80 87 81 82 79 75 56 30 26 21 8 1 2 3 3 3 5 12 9 29 48 52 54 87 94 97 100
89 94 89 89 91 94 93 94 93 91 89 88 91 89 87 91 59 86 85 91 91 82 75 69 29 26 24 14 11 2 5 5 7 7 11 19 15 24 28 37 53 72 84 88 90
95 92 93 92 93 92 91 93 94 89 92 81 86 83 86 82 63 93 84 88 82 73 69 65 20 22 19 10 12 4 4 10 12 13 11 16 19 17 32 25 35 51 80 82 82
95 94 94 90 94 92 96 92 87 91 89 95 48 84 83 69 88 90 84 83 64 69 66 65 22 20 15 11 13 7 7 9 7 16 15 14 17 21 14 20 25 52 57 75 77
96 91 91 94 95 93 91 85 81 86 89 90 80 86 75 92 86 85 83 76 63 56 61 63 22 16 13 12 7 8 8 12 13 19 19 15 14 13 19 19 24 32 43 62 71
91 91 92 94 91 92 81 92 88 76 76 81 82 87 96 91 89 85 79 65 64 62 58 51 18 10 9 11 11 11 17 15 13 14 17 19 20 18 19 20 29 30 41 39 63
93 87 94 80 86 88 86 78 77 47 85 85 85 90 97 88 84 82 68 61 59 57 57 51 15 7 8 8 14 13 16 15 18 17 14 15 20 20 19 20 25 19 32 44 48
90 89 82 92 85 82 74 80 82 85 87 61 84 96 94 88 82 66 64 59 55 52 55 11 9 6 7 5 10 17 16 15 16 16 18 15 15 13 16 18 28 25 27 34 53
81 87 92 91 79 82 92 80 81 80 87 82 94 72 90 80 55 71 64 57 53 50 56 8 9 6 8 5 3 10 16 17 17 19 16 16 17 22 25 28 29 35 37 38 43
93 86 83 96 92 76 79 82 73 95 93 87 97 91 54 76 45 65 60 55 46 48 55 11 11 7 8 5 5 10 16 14 20 12 16 19 18 20 20 30 26 33 35 35 39
84 87 91 82 88 81 62 54 93 95 82 98 95 88 47 47 53 60 57 50 42 46 57 17 10 9 10 7 8 10 13 14 15 18 21 23 17 19 20 21 24 24 24 25 23
Wind_Direction
324 323 324 336 334 327 340 323 340 341 336 325 327 322 317 314 316 317 293 296 301 303 274 282 273 267 273 266 271 259 256 248 244 243 241 238 241 244 243 237 239 239 240 232 228
323 323 326 330 333 321 342 331 342 337 332 330 326 320 320 320 313 305 301 304 313 306 301 282 292 270 266 268 277 279 259 253 248 247 242 239 236 238 241 240 236 232 236 238 232
321 321 327 325 321 338 336 334 335 335 329 331 326 323 322 320 321 320 307 313 314 297 305 292 293 300 298 283 283 276 268 254 252 247 246 240 244 240 237 237 239 237 232 234 233
319 326 322 322 328 334 319 334 334 334 329 325 327 320 324 323 322 319 309 315 312 295 303 292 286 299 294 288 282 278 271 263 248 250 245 242 244 242 238 236 234 237 235 233 235
319 325 322 322 322 329 330 331 332 332 327 328 325 324 323 325 322 320 318 317 315 303 300 301 304 299 292 283 282 279 277 280 262 249 248 243 239 239 234 231 231 232 235 234 234
315 318 323 315 330 329 328 329 331 331 330 326 325 325 323 325 322 323 320 315 314 304 312 304 307 303 292 296 303 281 277 276 267 255 250 240 238 235 239 233 227 227 230 232 232
315 322 324 322 323 328 326 330 328 329 327 325 324 325 324 322 325 320 319 317 316 316 312 311 303 296 309 300 290 294 283 279 272 262 250 241 252 247 226 235 234 223 225 229 228
317 320 321 325 323 325 327 328 329 328 326 314 325 324 322 323 324 324 319 317 316 315 312 313 303 309 307 315 299 290 288 281 272 269 264 243 236 229 231 224 224 226 223 224 227
316 318 319 321 319 324 326 326 327 327 326 325 324 323 322 321 323 322 321 319 317 315 312 317 310 316 317 307 305 303 299 287 272 272 258 253 242 240 227 227 223 224 221 221 223
314 316 319 315 322 323 325 323 325 325 325 324 323 323 321 320 322 318 321 321 319 311 322 325 316 322 327 314 316 312 305 293 282 274 262 259 242 222 220 225 226 220 222 217 220
309 316 313 318 310 320 321 325 324 323 323 323 322 322 322 321 322 321 319 317 319 319 327 326 322 326 318 321 323 329 315 297 294 286 270 259 235 216 210 218 219 217 216 217 217
313 313 313 314 318 315 321 321 320 322 319 318 321 321 321 320 322 320 317 319 322 330 331 329 326 331 319 317 320 326 314 310 318 302 299 246 210 206 203 210 215 217 218 216 214
312 315 315 316 317 315 319 319 319 321 319 320 321 320 321 320 321 319 322 322 323 332 333 331 327 330 323 323 334 322 315 305 352 20 56 109 198 202 201 208 210 210 210 215 215
314 315 314 316 316 317 318 318 320 320 320 320 318 320 322 320 318 319 324 323 323 333 334 332 330 322 325 324 335 319 309 301 326 39 85 105 301 202 196 205 207 208 209 213 214
314 310 312 315 315 316 316 315 316 317 319 319 320 319 319 317 318 323 323 325 324 334 319 333 333 322 333 328 334 322 308 314 294 262 166 170 210 188 195 201 205 207 208 210 215
312 312 313 313 315 316 316 316 318 317 319 319 321 321 319 318 319 319 323 325 332 329 333 334 335 323 336 332 345 349 283 286 240 272 264 203 205 173 190 205 204 206 207 211 215
310 312 311 312 315 315 316 316 316 320 321 320 320 308 319 322 322 318 321 327 329 321 329 333 332 326 335 333 359 76 139 206 206 171 138 160 191 188 198 206 203 207 209 213 216
308 311 311 316 313 313 314 317 319 319 318 318 319 318 318 323 314 322 324 332 332 334 334 334 320 322 329 341 344 1 184 186 158 153 144 147 187 193 198 203 208 207 211 214 216
309 310 310 311 312 314 314 318 318 317 318 316 317 317 317 316 315 332 328 330 332 334 335 336 316 315 321 338 331 275 210 183 196 191 195 186 167 173 205 207 212 208 211 213 216
308 310 311 313 312 314 319 318 317 316 316 319 316 319 316 320 326 330 329 330 318 334 336 340 319 313 306 314 305 316 194 214 191 217 211 205 178 189 177 192 202 207 208 214 216
310 312 311 309 316 315 317 315 314 312 313 313 318 319 324 326 328 331 331 334 332 329 334 341 320 307 286 301 248 282 209 184 184 187 201 203 214 184 177 177 192 198 205 212 214
308 310 311 312 312 314 313 314 314 318 319 321 325 322 327 333 333 333 335 333 334 336 334 340 318 291 270 293 229 243 205 200 212 204 199 201 206 203 193 191 194 197 203 203 211
311 310 311 310 312 312 308 317 314 311 311 319 324 326 328 333 333 333 336 334 334 336 337 341 313 280 262 277 220 237 209 202 206 220 216 214 213 214 208 208 204 201 204 207 210
308 310 309 310 306 313 319 311 321 317 324 308 321 327 331 332 332 329 335 334 332 333 340 320 293 251 261 248 232 227 222 204 215 219 220 216 207 229 212 215 206 214 212 210 212
306 306 309 305 328 303 308 320 323 314 320 318 324 321 330 332 319 331 334 333 335 330 342 309 281 248 262 263 246 196 229 223 218 220 217 218 220 200 197 205 210 215 216 218 219
307 304 311 304 328 310 317 321 316 323 322 319 326 329 314 330 318 328 331 333 332 328 343 322 290 246 251 251 197 172 217 224 223 207 229 229 214 216 226 213 243 221 223 224 223
303 307 302 308 317 313 316 307 318 320 318 323 327 327 307 317 317 326 331 338 327 335 346 337 279 265 232 242 227 204 207 220 228 234 240 237 223 231 229 232 242 249 249 233 232